Вернуться в каталог

CZ-4C DEB

АктивенSSO
NORAD 38659·DEBRIS·🇨🇳 China

Запущен Dec 15, 2009 с Taiyuan Satellite Launch Center

Loading…

Ближайшие Пролёты (ближайшие 24 часа)

TLE

СвежийSource: Space-Track

Эпоха: Sep 14, 2026, 03:03 UTC

1 38659U 09072G   26257.12774488  .00000272  00000-0  93123-3 0  9994
2 38659 100.7205 214.0697 0133841 270.4925 155.0014 13.05717618794438

Отслеживайте CZ-4C DEB в реальном времени с AllMySat

Download on the App Store